Big Piney, WY

7:54 AM MST on January 22, 2018 (GMT -0700)
Big Piney-Marbleton

Weather History for KBPI - November, 2011

Change the Weather History Date:

Friday, November 18, 2011

  Actual Average Record
Temperature  
Mean Temperature 29 °F 22 °F  
Max Temperature 37 °F 36 °F 59 °F (2008)
Min Temperature 21 °F 9 °F -10 °F (1980)
Degree Days  
Heating Degree Days 36 43  
Month to date heating degree days 684  
Since 1 July heating degree days 2264  
Cooling Degree Days 0 0  
Month to date cooling degree days 0  
Year to date cooling degree days 35  
Moisture  
Dew Point 23 °F    
Average Humidity 85    
Maximum Humidity 100    
Minimum Humidity 60    
Precipitation  
Precipitation 0.00 in 0.00 in 0.30 in (1996)
Month to date precipitation 0.13  
Year to date precipitation 6.10  
Sea Level Pressure  
Sea Level Pressure 29.57 in    
Wind  
Wind Speed 13 mph (NW)    
Max Wind Speed 24 mph    
Max Gust Speed 37 mph    
Visibility 4 miles    
Events Fog , Snow    
T = Trace of Precipitation, MM = Missing Value Source: NWS Daily Summary

Daily Weather History Graph

Daily Weather History Graph

Search for Another Location

Airport or City:

Trip Planner

Search our weather history database for the weather conditions in past years. The results will help you decide how hot, cold, wet, or windy it might be!

Date:

Astronomy

Nov. 18, 2011 Rise Set
Actual Time 7:15 AM MST 4:55 PM MST
Civil Twilight 6:44 AM MST 5:26 PM MST
Nautical Twilight 6:10 AM MST 6:00 PM MST
Astronomical Twilight 5:36 AM MST 6:33 PM MST
Moon No Moon Rise 12:52 PM MST (11/18)
Length of Visible Light 10h 41m
Length of Day
9h 40m
Waning Gibbous, 48% of the Moon is Illuminated
Nov 18
Waning Gibbous
Nov 24
New
Dec 2
First Quarter
Dec 10
Full
Dec 17
Last Quarter

Hourly Weather History & Observations

Time (MST) Temp. Windchill Dew Point Humidity Pressure Visibility Wind Dir Wind Speed Gust Speed Precip Events Conditions
12:53 AM 37.9 °F 26.8 °F 25.0 °F 60% 29.58 in 10.0 mi West 24.2 mph 31.1 mph 0.00 in   Overcast
1:53 AM 36.0 °F 25.0 °F 28.0 °F 73% 29.53 in 3.0 mi WSW 20.7 mph 26.5 mph 0.00 in Snow Light Snow
2:01 AM 35.6 °F 25.2 °F 28.4 °F 75% 29.62 in 2.0 mi WSW 18.4 mph 27.6 mph 0.00 in Snow Light Snow
2:08 AM 33.8 °F 23.9 °F 28.4 °F 81% 29.61 in 3.0 mi WSW 15.0 mph - 0.00 in Snow Light Snow
2:53 AM 34.0 °F 23.0 °F 28.9 °F 82% 29.54 in 2.5 mi WSW 18.4 mph 27.6 mph 0.00 in Snow Light Snow
3:06 AM 33.8 °F 22.5 °F 28.4 °F 81% 29.63 in 3.0 mi WSW 19.6 mph - 0.00 in Snow Light Snow
3:10 AM 33.8 °F 22.5 °F 30.2 °F 87% 29.62 in 1.8 mi SW 19.6 mph - 0.00 in Snow Light Snow
3:22 AM 32.0 °F 20.5 °F 30.2 °F 93% 29.61 in 3.0 mi SW 18.4 mph - 0.00 in Snow Light Snow
3:37 AM 32.0 °F 21.6 °F 30.2 °F 93% 29.61 in 10.0 mi SW 15.0 mph - 0.00 in   Scattered Clouds
3:53 AM 32.0 °F 24.8 °F 28.9 °F 88% 29.54 in 10.0 mi WSW 8.1 mph - 0.00 in   Mostly Cloudy
4:53 AM 32.0 °F - 26.1 °F 79% 29.56 in 10.0 mi Calm Calm - N/A   Overcast
5:53 AM 34.0 °F 21.8 °F 24.1 °F 67% 29.57 in 10.0 mi West 23.0 mph 36.8 mph 0.00 in   Overcast
6:22 AM 30.2 °F 22.6 °F 28.4 °F 93% 29.61 in 1.8 mi NNW 8.1 mph - 0.00 in Snow Light Snow
6:35 AM 30.2 °F 26.7 °F 28.4 °F 93% 29.61 in 1.0 mi North 3.5 mph - 0.00 in Snow Light Snow
6:49 AM 30.2 °F - 28.4 °F 93% 29.61 in 1.2 mi Calm Calm - 0.00 in Snow Light Snow
6:53 AM 30.0 °F 24.1 °F 28.0 °F 92% 29.58 in 1.2 mi NW 5.8 mph - 0.00 in Snow Light Snow
7:03 AM 30.2 °F 26.7 °F 28.4 °F 93% 29.61 in 1.0 mi NNW 3.5 mph - 0.00 in Snow Light Snow
7:21 AM 28.4 °F - 28.4 °F 100% 29.61 in 0.8 mi Calm Calm - 0.00 in Snow Light Snow
7:35 AM 28.4 °F 23.3 °F 28.4 °F 100% 29.61 in 0.8 mi North 4.6 mph - 0.00 in Snow Light Snow
7:50 AM 30.2 °F 24.3 °F 28.4 °F 93% 29.61 in 1.5 mi North 5.8 mph - N/A Snow Light Snow
7:53 AM 30.0 °F 25.2 °F 27.0 °F 88% 29.57 in 2.0 mi North 4.6 mph - 0.00 in Snow Light Snow
8:02 AM 28.4 °F 21.2 °F 26.6 °F 93% 29.62 in 4.0 mi NNW 6.9 mph - N/A Snow Light Snow
8:11 AM 28.4 °F 18.0 °F 26.6 °F 93% 29.61 in 1.8 mi NNW 12.7 mph 19.6 mph N/A Snow Light Snow
8:27 AM 28.4 °F 19.7 °F 26.6 °F 93% 29.61 in 2.0 mi North 9.2 mph - N/A Snow Light Snow
8:35 AM 28.4 °F 21.2 °F 26.6 °F 93% 29.60 in 6.0 mi North 6.9 mph - 0.00 in Snow Light Snow
8:53 AM 30.0 °F 24.1 °F 25.0 °F 82% 29.58 in 6.0 mi NW 5.8 mph - 0.00 in Snow Light Snow
9:00 AM 30.2 °F 24.3 °F 24.8 °F 80% 29.61 in 4.0 mi NW 5.8 mph - 0.00 in Snow Light Snow
9:03 AM 30.2 °F 20.8 °F 24.8 °F 80% 29.61 in 1.8 mi NNW 11.5 mph - 0.00 in Snow Light Snow
9:17 AM 30.2 °F 21.3 °F 24.8 °F 80% 29.61 in 3.0 mi NNW 10.4 mph - 0.00 in Snow Light Snow
9:31 AM 28.4 °F 17.5 °F 24.8 °F 86% 29.61 in 1.8 mi NNW 13.8 mph - 0.00 in Snow Light Snow
9:49 AM 28.4 °F 19.7 °F 24.8 °F 86% 29.60 in 0.8 mi NNW 9.2 mph 17.3 mph 0.00 in Snow Light Snow
9:53 AM 28.9 °F 19.2 °F 24.1 °F 82% 29.58 in 0.8 mi NNW 11.5 mph - 0.00 in Snow Light Snow
10:02 AM 28.4 °F 18.0 °F 23.0 °F 80% 29.59 in 1.2 mi NNW 12.7 mph - 0.00 in Snow Light Snow
10:09 AM 28.4 °F 19.1 °F 24.8 °F 86% 29.60 in 3.0 mi NW 10.4 mph - 0.00 in Snow Light Snow
10:21 AM 28.4 °F 17.5 °F 21.2 °F 74% 29.60 in 3.0 mi NW 13.8 mph - 0.00 in Snow Light Snow
10:25 AM 28.4 °F 17.0 °F 23.0 °F 80% 29.60 in 1.8 mi NW 15.0 mph - 0.00 in Snow Light Snow
10:35 AM 26.6 °F 14.3 °F 23.0 °F 86% 29.61 in 0.5 mi NW 16.1 mph - 0.00 in Fog , Snow Snow
10:53 AM 28.0 °F 14.9 °F 23.0 °F 81% 29.57 in 0.8 mi NW 19.6 mph 25.3 mph 0.00 in Snow Light Snow
11:01 AM 28.4 °F 16.2 °F 21.2 °F 74% 29.60 in 1.5 mi WNW 17.3 mph - 0.00 in Snow Light Snow
11:10 AM 28.4 °F 16.2 °F 21.2 °F 74% 29.60 in 2.0 mi NW 17.3 mph - 0.00 in Snow Light Snow
11:19 AM 28.4 °F 16.6 °F 21.2 °F 74% 29.59 in 5.0 mi WNW 16.1 mph 23.0 mph 0.00 in Snow Light Snow
11:53 AM 28.9 °F 18.6 °F 21.0 °F 72% 29.54 in 10.0 mi WNW 12.7 mph - 0.00 in   Overcast
12:53 PM 30.0 °F 21.1 °F 19.9 °F 66% 29.52 in 10.0 mi WNW 10.4 mph - N/A   Overcast
1:53 PM 28.9 °F 20.4 °F 19.9 °F 69% 29.51 in 10.0 mi WNW 9.2 mph - N/A   Overcast
2:53 PM 28.0 °F 18.6 °F 18.0 °F 66% 29.52 in 10.0 mi NNW 10.4 mph - N/A   Overcast
3:51 PM 24.8 °F 14.6 °F 19.4 °F 80% 29.56 in 1.8 mi North 10.4 mph - 0.00 in Snow Light Snow
3:53 PM 25.0 °F 14.2 °F 19.9 °F 81% 29.55 in 1.5 mi North 11.5 mph - 0.00 in Snow Light Snow
4:04 PM 24.8 °F 15.3 °F 19.4 °F 80% 29.56 in 0.5 mi North 9.2 mph - 0.00 in Fog , Snow Snow
4:28 PM 23.0 °F 13.1 °F 19.4 °F 86% 29.55 in 1.0 mi NNE 9.2 mph - 0.00 in Snow Light Snow
4:53 PM 23.0 °F 13.1 °F 19.9 °F 88% 29.56 in 1.8 mi NNE 9.2 mph - 0.00 in Snow Light Snow
5:02 PM 23.0 °F 13.1 °F 19.4 °F 86% 29.55 in 2.5 mi NNE 9.2 mph - 0.00 in Snow Light Snow
5:09 PM 23.0 °F 14.7 °F 19.4 °F 86% 29.55 in 3.0 mi NNE 6.9 mph - 0.00 in Snow Light Snow
5:53 PM 23.0 °F 18.4 °F 19.0 °F 85% 29.55 in 7.0 mi NE 3.5 mph - 0.00 in Snow Light Snow
6:53 PM 21.9 °F 15.7 °F 18.0 °F 85% 29.53 in 7.0 mi ENE 4.6 mph - 0.00 in Snow Light Snow
7:07 PM 23.0 °F 15.8 °F 19.4 °F 86% 29.51 in 2.0 mi NE 5.8 mph - 0.00 in Snow Light Snow
7:14 PM 23.0 °F 18.4 °F 19.4 °F 86% 29.51 in 1.8 mi NE 3.5 mph - 0.00 in Snow Light Snow
7:20 PM 23.0 °F 15.8 °F 19.4 °F 86% 29.51 in 3.0 mi NE 5.8 mph - N/A Snow Light Snow
7:53 PM 21.9 °F - 19.9 °F 92% 29.55 in 2.5 mi Calm Calm - 0.00 in Snow Light Snow
8:35 PM 21.2 °F 11.7 °F 19.4 °F 93% 29.52 in 4.0 mi South 8.1 mph - 0.00 in Snow Light Snow
8:49 PM 21.2 °F 11.7 °F 19.4 °F 93% 29.52 in 2.5 mi SSW 8.1 mph - 0.00 in Snow Light Snow
8:53 PM 21.9 °F 13.4 °F 19.9 °F 92% 29.55 in 2.5 mi SSW 6.9 mph - 0.00 in Snow Light Snow
9:01 PM 21.2 °F 11.7 °F 19.4 °F 93% 29.54 in 3.0 mi SSW 8.1 mph - 0.00 in Snow Light Snow
9:13 PM 21.2 °F 11.7 °F 19.4 °F 93% 29.53 in 2.5 mi SSW 8.1 mph - 0.00 in Snow Light Snow
9:28 PM 21.2 °F 13.6 °F 19.4 °F 93% 29.53 in 3.0 mi SSW 5.8 mph - 0.00 in Snow Light Snow
9:44 PM 21.2 °F 12.6 °F 19.4 °F 93% 29.54 in 2.0 mi SSW 6.9 mph - 0.00 in Snow Light Snow
9:53 PM 21.9 °F 14.5 °F 19.9 °F 92% 29.56 in 2.5 mi SSW 5.8 mph - 0.00 in Snow Light Snow
10:03 PM 21.2 °F 11.7 °F 19.4 °F 93% 29.54 in 3.0 mi SSW 8.1 mph - 0.00 in Snow Light Snow
10:24 PM 21.2 °F 12.6 °F 19.4 °F 93% 29.54 in 2.5 mi SSW 6.9 mph - 0.00 in Snow Light Snow
10:42 PM 21.2 °F 12.6 °F 19.4 °F 93% 29.54 in 4.0 mi SSW 6.9 mph - 0.00 in Snow Light Snow
10:53 PM 21.9 °F 12.5 °F 19.9 °F 92% 29.58 in 4.0 mi South 8.1 mph - 0.00 in Snow Light Snow
11:53 PM 21.0 °F 12.4 °F 19.0 °F 92% 29.57 in 10.0 mi South 6.9 mph - 0.00 in   Mostly Cloudy